Location: Middlebury
(44.0133°N, 73.1813°W)
Time: 21:04:45
(UTC-05:00)

ISS - Pass Details

Date: 24 January 2020
Orbit: 415 x 422 km, 51.6° (Epoch: 26 February)

Event Time Altitude Azimuth Distance (km) Brightness Sun altitude
Rises 18:32:20 0° 259° (WSW) 2,374 1.8 -18.0°
Reaches altitude 10° 18:34:31 10° 267° (W) 1,510 0.3 -18.4°
Maximum altitude 18:37:44 39° 338° (NNW) 648 -2.8 -19.0°
Enters shadow 18:38:19 36° 6° (N) 695 -2.8 -19.1°
